Regional Weather Roundup
Issued by NWS Cleveland, OH

Home | Current Version | Previous Version | Text Only | Print | Product List | Glossary On
Versions: 1 2 3 4 5 6 7 8 9 10 11 12 13 14 15 16 17 18 19 20 21 22 23 24 25 26 27 28 29 30 31 32 33 34 35 36 37 38 39 40 41 42 43 44 45 46 47 48 49 50
000
ASUS41 KCLE 311702
RWRCLE
OHIO REGIONAL WEATHER ROUNDUP
NATIONAL WEATHER SERVICE CLEVELAND, OH
1200 PM EST SAT JAN 31 2015

NOTE: "FAIR" INDICATES FEW OR NO CLOUDS BELOW 12,000 FEET WITH NO
SIGNIFICANT WEATHER AND/OR OBSTRUCTIONS TO VISIBILITY.

OHZ001>008-015>018-024>027-034-035-043-044-311800-
   NORTHWEST OHIO

CITY           SKY/WX    TMP DP  RH WIND       PRES   REMARKS
DEFIANCE       SUNNY     31  21  66 SW13      30.28F WCI  21
FINDLAY        SUNNY     29  19  66 SW12      30.28F WCI  19
TOLEDO EXPRESS SUNNY     30  19  63 SW13      30.26F WCI  20
TOLEDO EXEC    SUNNY     29  18  63 SW14      30.29F WCI  18
LIMA           SUNNY     30  19  63 SW10      30.29F WCI  21
$$

OHZ009>014-019>023-028>033-038-089-311800-
   NORTHEAST OHIO

CITY           SKY/WX    TMP DP  RH WIND       PRES   REMARKS
CLE-HOPKINS    CLOUDY    24  14  65 SW9       30.33F WCI  14
CLE-LAKEFRONT  CLOUDY    25  15  66 S12       30.30F WCI  14
CUY CO. ARPT   PTSUNNY   27  18  69 SW9       30.30F WCI  17
LORAIN-ELYRIA  CLOUDY    24  16  71 SW9       30.30F WCI  14
ASHTABULA      CLOUDY    19  11  70 SW8       30.30F WCI   9
AKRON-CANTON   MOSUNNY   21  11  65 SW10      30.29F WCI  10
WOOSTER        SUNNY     22  13  68 SW12      30.30F WCI  10
MANSFIELD      SUNNY     24  16  71 S15       30.27F WCI  11
YOUNGSTOWN     CLOUDY    20  12  71 SW8       30.28F WCI  10
$$

OHZ042-051>053-060>062-070>072-077>081-311800-
  SOUTHWEST OHIO

CITY           SKY/WX    TMP DP  RH WIND       PRES   REMARKS
CINC-COVINGTON PTSUNNY   34  19  54 SW7       30.36F WCI  28
CINC-LUNKEN    SUNNY     35  19  52 S9        30.39F WCI  28
HAMILTON       SUNNY     35  19  52 SW7       30.37F WCI  29
DAYTON         MOSUNNY   33  20  58 SW12      30.32F WCI  24
WRIGHT-PAT AFB NOT AVBL
DAYTON GENERAL SUNNY     32  19  58 SW10      30.33F WCI  24
WILMINGTON     SUNNY     32  20  61 SW12      30.33F WCI  23
$$

OHZ036-037-039>041-045>050-054>059-063>069-073>076-082>088-311800-
  CENTRAL AND SOUTHEAST OHIO

CITY           SKY/WX    TMP DP  RH WIND       PRES   REMARKS
COLUMBUS       MOSUNNY   26  16  65 S9        30.35F WCI  17
OSU AIRPORT    SUNNY     28  17  63 S12       30.32F WCI  18
BOLTON FIELD   SUNNY     28  19  69 SW10      30.35F WCI  19
RICKENBACK AFB NOT AVBL
NEWARK         SUNNY     26  16  65 S8        30.34F WCI  18
MARION         PTSUNNY   26  17  68 SW12      30.30F WCI  16
LANCASTER      SUNNY     28  18  66 S8        30.36F WCI  20
ZANESVILLE     SUNNY     25  14  63 SW9       30.35F WCI  15
NEW PHILLY     SUNNY     23  12  62 VRB3      30.35F
$$


USA.gov is the U.S. government's official web portal to all federal, state and local government web resources and services.